KDAY Airport Diagram

We have created a template for each of the higher traffic airports in the vZID airspace. They include KCMH, KCRW, KCVG, KDAY, KIND, KLEX and KSDF. You wil find usefull information including the airport diagram, weather, and specific airport procedures.

KDAY Weather

[Source: ADDS]
METAR
KDAY 230456Z 05008KT 10SM BKN044 OVC060 21/18 A3004 RMK AO2 SLP166 T02060178 402560206 =
KDAY 230534Z 2306/2406 04004KT P6SM BKN060 FM231100 05005KT P6SM BKN250 FM231500 05010KT P6SM SCT250 FM240000 04006KT P6SM SKC
TAF
KDAY 230534Z 2306/2406 04004KT P6SM BKN060 FM231100 05005KT P6SM BKN250 FM231500 05010KT P6SM SCT250 FM240000 04006KT P6SM SKC =

KDAY Operations

Approach/Departure operations for KDAY were consolidated into the Columbus TRACON quite some time back. We have recently made that change here at ZID. When arriving/departing the Dayton Airport and airports in the surrounding area, contact with the Columbus APP/DEP controller, if online, should be expected.

Calm Wind Configuration is runways 24L/R. This configuration is used up to and including 10kts.

Runway 24L typically departs south and east, except larger aircraft requiring a longer runway.

Runway 24R typically departs north and west.

 

JSN Epic template designed by JoomlaShine.com